EW3244 Weather Reports


Display with metric or nautical units.
time (UTC)temp
F
wind
direction
speed
MPH
gust
MPH
rain 1hr
in
rain 24hr
in
rain mn
in
humidity
%
barometer
mb
20260901233010 55 43 0.0 3.0 0.00 0.00 0.00 80 1008.4
20260901231508 56 45 1.0 6.0 0.00 0.00 0.00 80 1008.5
20260901230008 56 52 2.0 4.0 0.00 0.00 0.00 80 1008.5
20260901224505 56 56 1.0 5.0 0.00 0.00 0.00 80 1008.6
20260901223003 57 92 1.0 6.0 0.00 0.00 0.00 79 1008.5
20260901221502 57 38 1.0 3.0 0.00 0.00 0.00 79 1008.5
20260901220116 57 51 0.0 1.0 0.00 0.00 0.00 81 1008.4
20260901214602 58 51 1.0 3.0 0.00 0.00 0.00 81 1008.5
20260901213056 58 59 1.0 4.0 0.00 0.00 0.00 81 1008.4
20260901211557 59 50 3.0 6.0 0.00 0.00 0.00 81 1008.3
20260901210056 59 56 2.0 5.0 0.00 0.00 0.00 81 1008.3
20260901204555 59 43 2.0 5.0 0.00 0.00 0.00 81 1008.4
20260901203057 60 45 3.0 6.0 0.00 0.00 0.00 81 1008.2
20260901201553 61 50 3.0 7.0 0.00 0.00 0.00 80 1008.2
20260901200051 61 47 3.0 6.0 0.00 0.00 0.00 80 1008.1
20260901194551 61 43 2.0 8.0 0.00 0.00 0.00 81 1008.0
20260901193051 61 66 0.0 1.0 0.00 0.00 0.00 80 1007.9
20260901191558 61 66 0.0 2.0 0.00 0.00 0.00 80 1007.9
20260901190047 61 66 0.0 1.0 0.00 0.00 0.00 80 1007.9
20260901184548 61 66 0.0 1.0 0.00 0.00 0.00 79 1007.8
20260901183049 61 66 0.0 1.0 0.00 0.00 0.00 79 1007.7
20260901181544 62 66 0.0 2.0 0.00 0.00 0.00 77 1007.6
20260901180043 63 68 0.0 1.0 0.00 0.00 0.00 76 1007.5
20260901174547 64 67 1.0 3.0 0.00 0.00 0.00 74 1007.4
20260901173055 65 62 2.0 5.0 0.00 0.00 0.00 71 1007.3
20260901171542 66 71 1.0 4.0 0.00 0.00 0.00 68 1007.2
20260901170043 67 71 2.0 9.0 0.00 0.00 0.00 66 1007.1
20260901164542 68 72 3.0 8.0 0.00 0.00 0.00 66 1007.0
20260901163037 69 43 3.0 6.0 0.00 0.00 0.00 64 1006.9
20260901161550 69 88 2.0 6.0 0.00 0.00 0.00 63 1006.9
20260901160034 69 54 1.0 7.0 0.00 0.00 0.00 63 1006.8
20260901154542 69 85 5.0 9.0 0.00 0.00 0.00 62 1006.7
20260901153035 69 64 4.0 9.0 0.00 0.00 0.00 60 1006.6
20260901151534 70 68 5.0 8.0 0.00 0.00 0.00 61 1006.7
20260901150037 70 63 4.0 9.0 0.00 0.00 0.00 61 1006.7
20260901144535 70 65 3.0 7.0 0.00 0.00 0.00 63 1006.7
20260901143022 69 67 2.0 5.0 0.00 0.00 0.00 67 1006.7
20260901141519 68 23 2.0 5.0 0.00 0.00 0.00 71 1006.8
20260901140017 67 38 3.0 6.0 0.00 0.00 0.00 73 1006.8
20260901134519 67 47 1.0 4.0 0.00 0.00 0.00 76 1006.9
20260901133015 67 46 3.0 5.0 0.00 0.00 0.00 76 1006.9
20260901131517 67 51 3.0 6.0 0.00 0.00 0.00 77 1007.0
20260901130021 67 31 2.0 7.0 0.00 0.00 0.00 75 1006.9
20260901124516 67 69 2.0 8.0 0.00 0.00 0.00 78 1006.9
20260901123008 66 87 3.0 7.0 0.00 0.00 0.00 80 1006.8
20260901121507 65 69 2.0 6.0 0.00 0.00 0.00 80 1006.9
20260901120007 64 76 2.0 4.0 0.00 0.00 0.00 77 1007.0
20260901114509 61 55 2.0 5.0 0.00 0.00 0.00 68 1007.1
20260901113005 60 60 1.0 3.0 0.00 0.00 0.00 74 1007.0
20260901111504 60 60 2.0 5.0 0.00 0.00 0.00 76 1006.9
20260901110004 61 67 4.0 7.0 0.00 0.00 0.00 80 1007.0
20260901104503 63 83 4.0 9.0 0.00 0.00 0.00 80 1006.8
20260901103100 65 62 4.0 7.0 0.00 0.00 0.00 77 1006.7
20260901101601 65 40 3.0 6.0 0.00 0.00 0.00 76 1006.5
20260901094555 68 340 2.0 8.0 0.00 0.00 0.00 73 1006.3
20260901093050 66 335 2.0 6.0 0.00 0.00 0.00 75 1006.2
20260901091547 64 9 1.0 3.0 0.00 0.00 0.00 80 1006.2
20260901090050 62 54 0.0 2.0 0.00 0.00 0.00 79 1006.3
20260901084550 62 56 1.0 4.0 0.00 0.00 0.00 81 1006.3
20260901083044 63 60 1.0 5.0 0.00 0.00 0.00 81 1006.2
20260901081542 63 61 1.0 4.0 0.00 0.00 0.00 81 1006.1
20260901080040 63 54 2.0 5.0 0.00 0.00 0.00 81 1006.1
20260901074545 63 58 3.0 6.0 0.00 0.00 0.00 81 1006.0
20260901073036 61 52 2.0 6.0 0.00 0.00 0.00 80 1005.9
20260901071536 61 52 3.0 6.0 0.00 0.00 0.00 80 1005.9
20260901070032 61 49 2.0 6.0 0.00 0.00 0.00 77 1005.8
20260901064532 61 44 3.0 6.0 0.00 0.00 0.00 74 1005.7
20260901063028 60 50 2.0 6.0 0.00 0.00 0.00 64 1005.7
20260901061527 59 52 1.0 5.0 0.00 0.00 0.00 53 1005.7
20260901060020 58 48 1.0 5.0 0.00 0.00 0.00 45 1005.7
20260901054520 57 47 1.0 5.0 0.00 0.00 0.00 42 1005.7
20260901053018 57 10 1.0 3.0 0.00 0.00 0.00 40 1005.8
20260901051517 56 17 1.0 2.0 0.00 0.00 0.00 41 1005.6
20260901050016 56 3 0.0 0.0 0.00 0.00 0.00 44 1005.6
20260901044532 55 3 0.0 0.0 0.00 0.00 0.00 45 1005.6
20260901043013 55 3 0.0 1.0 0.00 0.00 0.00 44 1005.5
20260901041523 55 45 0.0 0.0 0.00 0.00 0.00 47 1005.5
20260901040010 55 45 0.0 0.0 0.00 0.00 0.00 50 1005.5
20260901034509 55 45 0.0 0.0 0.00 0.00 0.00 51 1005.4
20260901033012 55 45 0.0 0.0 0.00 0.00 0.00 55 1005.5
20260901031506 56 45 0.0 0.0 0.00 0.00 0.00 54 1005.4
20260901030003 56 45 0.0 0.0 0.00 0.00 0.00 56 1005.4
20260901024502 56 45 0.0 1.0 0.00 0.00 0.00 56 1005.5
20260901023059 56 45 0.0 1.0 0.00 0.00 0.00 58 1005.5
20260901021604 56 45 0.0 0.0 0.00 0.00 0.00 62 1005.4
20260901020055 57 45 0.0 1.0 0.00 0.00 0.00 61 1005.4
20260901014554 57 45 0.0 1.0 0.00 0.01 0.00 62 1005.3
20260901013111 57 45 0.0 1.0 0.00 0.01 0.00 62 1005.2
20260901011609 57 66 0.0 0.0 0.00 0.01 0.00 65 1005.1
20260901010051 57 66 0.0 0.0 0.00 0.01 0.00 64 1005.2
20260901004547 58 66 0.0 0.0 0.00 0.01 0.00 64 1005.2
20260901003049 58 71 0.0 0.0 0.00 0.01 0.00 65 1005.2
20260901001545 58 303 0.0 1.0 0.00 0.01 0.00 66 1005.3
20260901000045 58 303 0.0 2.0 0.00 0.01 0.00 67 1005.3
20260831234545 58 303 0.0 1.0 0.00 0.01 0.00 68 1005.3